Flag for Taiwan Weather past 2 weeks in Taichung, Taiwan

Now
75 °F

Passing clouds.


Feels Like: 77 °F
Forecast: 68 / 87 °F
Wind: 6 mph from Northwest

Location: Chiang Kai Shek


UV Index: 7 (High)

Visibility: 5 mi


Pressure: 29.83 "Hg

Humidity: 74%

Dew point: 66 °F

Location of TaichungLocation

Historic Weather in Taichung

°F

Taichung temperature yesterday

Maximum temperature yesterday: 81 °F (at 4:00 PM)
Minimum temperature yesterday: 64 °F (at 1:30 AM)
Average temperature yesterday: 72 °F

Past Weeks' High & Low Weather Summary

 TemperatureHumidityPressure
High86 °F (Apr 12, 1:00 PM)94% (Apr 3, 2:00 AM)30.12 "Hg (Apr 3, 2:00 AM)
Low55 °F (Apr 5, 3:00 AM)42% (Apr 15, 4:00 PM)29.80 "Hg (Apr 12, 2:30 PM)
Average70 °F74%29.97 "Hg
* Reported Apr 1 4:00 PM — Apr 16 4:00 PM, Taichung, Weather by CustomWeather, © 2014

Note: Actual official high and low records may vary slightly from our data, if they occured in-between our weather recording intervals... More about our weather records

Advertising

Historic Weather Conditions — Data for Previous 24 hours

 ConditionsComfort  
Time TempWeatherWind HumidityBarometerVisibility
4:00 PM
Apr 16
75 °FScattered clouds.6 mph74%29.86 "Hg5 mi
3:30 PM75 °FScattered clouds.6 mph74%29.86 "Hg5 mi
3:00 PM77 °FScattered clouds.6 mph69%29.86 "Hg5 mi
2:30 PM75 °FScattered clouds.6 mph74%29.86 "Hg5 mi
2:00 PM75 °FScattered clouds.10 mph74%29.89 "Hg4 mi
1:30 PM75 °FScattered clouds.10 mph74%29.89 "Hg4 mi
1:00 PM77 °FScattered clouds.8 mph69%29.89 "Hg4 mi
12:30 PM77 °FScattered clouds.10 mph69%29.92 "Hg4 mi
12:00 PM77 °FScattered clouds.9 mph69%29.92 "Hg4 mi
11:30 AM79 °FBroken clouds.9 mph70%29.92 "Hg3 mi
11:00 AM75 °FPartly sunny.7 mph74%29.95 "Hg3 mi
10:30 AM75 °FPartly sunny.7 mph74%29.95 "Hg3 mi
10:00 AM72 °FPartly sunny.8 mph78%29.95 "Hg3 mi
9:30 AM72 °FFog.6 mph78%29.98 "Hg3 mi
9:00 AM72 °FFog.7 mph78%29.98 "Hg3 mi
7:00 AM70 °FFog.8 mph83%29.98 "Hg3 mi
6:30 AM70 °FFog.9 mph83%29.95 "Hg3 mi
6:00 AM70 °FFog.9 mph83%29.95 "Hg3 mi
5:30 AM70 °FPassing clouds.10 mph88%29.92 "Hg5 mi
5:00 AM72 °FPassing clouds.9 mph83%29.92 "Hg5 mi
4:30 AM72 °FPassing clouds.10 mph83%29.92 "Hg6 mi
4:00 AM72 °FPassing clouds.9 mph83%29.92 "HgN/A
3:30 AM73 °FPassing clouds.8 mph78%29.92 "HgN/A
3:00 AM73 °FPartly cloudy.6 mph74%29.92 "HgN/A
2:30 AM73 °FPassing clouds.6 mph69%29.92 "HgN/A
2:00 AM73 °FPassing clouds.5 mph57%29.92 "HgN/A
1:30 AM73 °FPassing clouds.2 mph57%29.92 "HgN/A
1:00 AM73 °FPassing clouds.6 mph57%29.92 "HgN/A
12:30 AM73 °FPassing clouds.8 mph57%29.95 "HgN/A
12:00 AM75 °FPassing clouds.8 mph54%29.95 "HgN/A
11:30 PM
Apr 15
73 °FPassing clouds.8 mph57%29.95 "HgN/A
11:00 PM75 °FPassing clouds.12 mph54%29.95 "HgN/A
10:30 PM75 °FPassing clouds.9 mph54%29.95 "HgN/A
10:00 PM75 °FPartly cloudy.10 mph54%29.95 "HgN/A
9:30 PM75 °FPartly cloudy.10 mph54%29.95 "HgN/A
9:00 PM75 °FPassing clouds.16 mph54%29.92 "HgN/A
8:30 PM73 °FPassing clouds.17 mph57%29.92 "HgN/A
8:00 PM73 °FPassing clouds.17 mph57%29.92 "HgN/A
7:30 PM75 °FPassing clouds.17 mph54%29.92 "HgN/A
7:00 PM75 °FPassing clouds.16 mph54%29.92 "HgN/A
6:30 PM75 °FPassing clouds.17 mph54%29.92 "HgN/A
6:00 PM77 °FPassing clouds.17 mph51%29.92 "HgN/A
5:30 PM77 °FPassing clouds.16 mph51%29.92 "HgN/A
5:00 PM79 °FPassing clouds.18 mph45%29.92 "HgN/A
Weather by CustomWeather, © 2014

See weather overview